FW0450 Weather Reports


time (UTC)temp
C
wind
direction
speed
KPH
gust
KPH
rain 1hr
cm
rain 24hr
cm
rain mn
cm
humidity
%
barometer
mb
20200930021012 15 353 11.3 16.1 0.00 0.00 0.00 99 1018.0
20200930020509 15 349 11.3 17.7 0.00 0.00 0.00 99 1017.8
20200930020030 15 355 12.9 17.7 0.00 0.00 0.00 99 1017.9
20200930015510 15 353 12.9 17.7 0.00 0.00 0.00 99 1017.8
20200930015012 15 356 11.3 17.7 0.00 0.00 0.00 99 1017.8
20200930014522 15 7 11.3 16.1 0.00 0.00 0.00 99 1018.1
20200930014008 15 14 9.7 14.5 0.00 0.00 0.00 99 1018.1
20200930013509 15 6 9.7 14.5 0.00 0.00 0.00 99 1018.1
20200930013016 15 3 8.0 12.9 0.00 0.00 0.00 99 1018.2
20200930012508 15 2 8.0 12.9 0.00 0.00 0.00 99 1018.0
20200930012011 15 357 8.0 12.9 0.00 0.00 0.00 99 1018.2
20200930011515 15 355 8.0 14.5 0.00 0.00 0.00 99 1018.4
20200930011010 15 353 9.7 17.7 0.00 0.00 0.00 99 1018.4
20200930010506 15 358 8.0 17.7 0.00 0.00 0.00 99 1018.2
20200930010023 15 4 8.0 14.5 0.00 0.00 0.00 99 1018.2
20200930005512 15 5 9.7 14.5 0.00 0.00 0.00 99 1018.1
20200930005006 15 3 9.7 12.9 0.00 0.00 0.00 99 1018.1
20200930004518 15 8 11.3 17.7 0.00 0.00 0.00 99 1017.8
20200930004009 15 14 11.3 17.7 0.00 0.00 0.00 99 1017.9
20200930003519 15 18 11.3 16.1 0.00 0.00 0.00 99 1017.8
20200930003018 15 2 9.7 14.5 0.00 0.00 0.00 99 1018.2
20200930002517 15 353 8.0 12.9 0.00 0.00 0.00 99 1018.0
20200930002012 15 346 6.4 12.9 0.00 0.00 0.00 99 1017.9
20200930001520 15 332 8.0 16.1 0.00 0.00 0.00 99 1018.1
20200930001012 15 346 9.7 16.1 0.00 0.00 0.00 99 1018.2
20200930000513 15 4 8.0 12.9 0.00 0.00 0.00 99 1018.0
20200930000023 15 17 8.0 12.9 0.00 0.00 0.00 99 1017.9
20200929235510 15 15 6.4 11.3 0.00 0.00 0.00 99 1018.0
20200929235008 15 12 6.4 11.3 0.00 0.00 0.00 99 1017.9
20200929234511 15 16 6.4 11.3 0.00 0.00 0.00 99 1018.1
20200929234009 15 11 6.4 12.9 0.00 0.00 0.00 99 1018.0
20200929233510 15 9 8.0 12.9 0.00 0.00 0.00 99 1018.1
20200929233019 15 26 8.0 12.9 0.00 0.00 0.00 99 1018.1
20200929232510 15 43 8.0 12.9 0.00 0.00 0.00 99 1018.1
20200929232015 15 30 8.0 14.5 0.00 0.00 0.00 99 1018.1
20200929231521 15 21 8.0 16.1 0.00 0.00 0.00 100 1018.0
20200929231007 15 28 8.0 16.1 0.00 0.00 0.00 100 1017.9
20200929230507 15 34 8.0 16.1 0.00 0.00 0.00 100 1018.0
20200929230018 15 26 8.0 12.9 0.00 0.00 0.00 100 1018.1
20200929225508 15 4 6.4 11.3 0.00 0.00 0.00 100 1018.0
20200929225006 15 3 6.4 12.9 0.00 0.00 0.00 100 1018.0
20200929224509 15 15 9.7 14.5 0.00 0.00 0.00 99 1018.2
20200929224006 15 14 11.3 17.7 0.00 0.00 0.00 99 1018.3
20200929223513 16 9 11.3 17.7 0.00 0.00 0.00 99 1017.9
20200929223010 16 22 11.3 17.7 0.00 0.00 0.00 99 1018.1
20200929222512 16 24 11.3 17.7 0.00 0.00 0.00 99 1017.9
20200929222012 16 11 11.3 17.7 0.00 0.00 0.00 99 1018.1
20200929221511 16 5 12.9 17.7 0.00 0.00 0.00 99 1018.2
20200929221010 16 3 12.9 19.3 0.00 0.00 0.00 99 1018.0
20200929220510 16 5 11.3 19.3 0.00 0.00 0.00 99 1018.1
20200929220019 16 6 11.3 17.7 0.00 0.00 0.00 99 1017.9
20200929215510 16 6 12.9 17.7 0.00 0.00 0.00 99 1018.2
20200929215007 16 5 12.9 17.7 0.00 0.00 0.00 99 1018.1
20200929214509 16 5 12.9 19.3 0.00 0.00 0.00 99 1018.1
20200929214009 16 12 11.3 19.3 0.00 0.00 0.00 99 1018.2
20200929213507 16 25 11.3 17.7 0.00 0.00 0.00 99 1018.0
20200929213015 16 32 11.3 17.7 0.00 0.00 0.00 99 1018.2
20200929212516 16 27 9.7 12.9 0.00 0.00 0.00 99 1018.0
20200929212017 16 18 9.7 12.9 0.00 0.00 0.00 99 1018.0
20200929211523 16 7 9.7 17.7 0.00 0.00 0.00 99 1018.2
20200929211011 16 4 9.7 17.7 0.00 0.00 0.00 99 1018.2
20200929210509 16 13 11.3 16.1 0.00 0.00 0.00 99 1018.1
20200929210011 16 19 11.3 17.7 0.00 0.00 0.00 99 1018.0
20200929205509 16 15 9.7 17.7 0.00 0.00 0.00 99 1017.9
20200929205022 16 12 11.3 19.3 0.00 0.00 0.00 99 1018.2
20200929204514 16 12 12.9 19.3 0.00 0.00 0.00 99 1018.0
20200929204006 16 5 11.3 16.1 0.00 0.00 0.00 99 1018.0
20200929203508 16 10 12.9 20.9 0.00 0.00 0.00 99 1018.0
20200929203017 16 11 12.9 20.9 0.00 0.00 0.00 99 1018.1
20200929202513 16 4 14.5 20.9 0.00 0.00 0.00 99 1017.8
20200929202007 16 5 12.9 20.9 0.00 0.00 0.00 99 1017.8
20200929201519 16 14 12.9 22.5 0.00 0.00 0.00 100 1017.8
20200929201010 16 11 14.5 22.5 0.00 0.00 0.00 100 1017.9
20200929200511 16 5 11.3 17.7 0.00 0.00 0.00 100 1017.6
20200929200024 16 4 9.7 17.7 0.00 0.00 0.00 100 1017.5
20200929195509 16 356 11.3 17.7 0.00 0.00 0.00 97 1017.7
20200929195018 16 357 11.3 17.7 0.00 0.00 0.00 97 1018.0
20200929194518 16 1 9.7 14.5 0.00 0.00 0.00 97 1017.7
20200929194007 16 2 9.7 14.5 0.00 0.00 0.00 96 1017.8
20200929193508 16 5 8.0 14.5 0.00 0.00 0.00 96 1017.6
20200929193025 16 356 9.7 14.5 0.00 0.00 0.00 96 1017.7
20200929192508 16 356 9.7 14.5 0.00 0.00 0.00 95 1017.8
20200929192012 16 4 8.0 12.9 0.00 0.00 0.00 95 1017.6
20200929191513 16 356 8.0 12.9 0.00 0.00 0.00 95 1017.6
20200929191011 16 354 8.0 12.9 0.00 0.00 0.00 94 1017.7
20200929190507 16 349 8.0 12.9 0.00 0.00 0.00 94 1017.6
20200929190020 17 346 8.0 12.9 0.00 0.00 0.00 94 1017.6
20200929185512 17 344 8.0 16.1 0.00 0.00 0.00 93 1017.5
20200929185008 17 342 8.0 16.1 0.00 0.00 0.00 93 1017.6
20200929184518 17 341 8.0 16.1 0.00 0.00 0.00 93 1017.6
20200929184009 17 338 8.0 17.7 0.00 0.00 0.00 92 1017.4
20200929183517 17 337 9.7 17.7 0.00 0.00 0.00 92 1017.4
20200929183020 17 339 9.7 14.5 0.00 0.00 0.00 92 1017.4
20200929182516 17 335 11.3 16.1 0.00 0.00 0.00 89 1017.5
20200929182009 17 341 11.3 19.3 0.00 0.00 0.00 89 1017.4
20200929181514 17 351 9.7 19.3 0.00 0.00 0.00 88 1017.3
20200929181010 17 346 9.7 19.3 0.00 0.00 0.00 88 1017.5
20200929180511 17 349 11.3 19.3 0.00 0.00 0.00 88 1017.4
20200929180019 17 330 11.3 17.7 0.00 0.00 0.00 88 1017.4
20200929175511 18 310 11.3 17.7 0.00 0.00 0.00 87 1017.4
20200929175008 18 332 12.9 19.3 0.00 0.00 0.00 87 1017.1
20200929174514 18 347 14.5 22.5 0.00 0.00 0.00 87 1017.2
20200929174020 18 326 14.5 22.5 0.00 0.00 0.00 86 1017.4
20200929173508 18 315 14.5 20.9 0.00 0.00 0.00 85 1017.1
20200929173015 18 325 14.5 22.5 0.00 0.00 0.00 84 1017.1
20200929172512 18 324 16.1 22.5 0.00 0.00 0.00 83 1016.9
20200929172011 18 332 14.5 22.5 0.00 0.00 0.00 82 1017.0
20200929171514 18 346 14.5 22.5 0.00 0.00 0.00 80 1016.8
20200929171009 18 339 14.5 19.3 0.00 0.00 0.00 78 1016.9
20200929170507 19 320 12.9 19.3 0.00 0.00 0.00 76 1017.0
20200929170030 19 311 11.3 17.7 0.00 0.00 0.00 75 1016.9
20200929165508 20 313 9.7 14.5 0.00 0.00 0.00 74 1016.9
20200929165009 20 330 9.7 17.7 0.00 0.00 0.00 73 1017.2
20200929164519 20 342 12.9 17.7 0.00 0.00 0.00 72 1017.0
20200929164011 20 348 12.9 19.3 0.00 0.00 0.00 71 1017.0
20200929163513 21 337 11.3 19.3 0.00 0.00 0.00 70 1016.8
20200929163017 21 331 12.9 20.9 0.00 0.00 0.00 70 1016.8
20200929162508 21 346 14.5 20.9 0.00 0.00 0.00 70 1017.0
20200929162006 21 347 12.9 20.9 0.00 0.00 0.00 70 1016.7
20200929161520 21 350 14.5 22.5 0.00 0.00 0.00 71 1016.8
20200929161008 21 354 14.5 22.5 0.00 0.00 0.00 71 1016.5
20200929160509 21 338 12.9 17.7 0.00 0.00 0.00 71 1016.8
20200929160020 21 332 12.9 19.3 0.00 0.00 0.00 72 1016.7
20200929155509 21 326 14.5 24.1 0.00 0.00 0.00 72 1016.8
20200929155007 21 324 14.5 24.1 0.00 0.00 0.00 73 1017.1
20200929154514 21 329 14.5 20.9 0.00 0.00 0.00 73 1016.8
20200929154019 21 330 16.1 25.7 0.00 0.00 0.00 73 1017.0
20200929153511 21 342 19.3 25.7 0.00 0.00 0.00 73 1016.9
20200929153017 21 342 19.3 25.7 0.00 0.00 0.00 72 1016.7
20200929152508 21 345 17.7 25.7 0.00 0.00 0.00 71 1016.9
20200929152011 21 339 17.7 25.7 0.00 0.00 0.00 72 1016.8
20200929151519 21 330 16.1 24.1 0.00 0.00 0.00 71 1017.0
20200929151008 21 321 14.5 24.1 0.00 0.00 0.00 71 1017.0
20200929150529 21 301 14.5 20.9 0.00 0.00 0.00 72 1016.9
20200929150019 21 317 14.5 20.9 0.00 0.00 0.00 72 1016.8
20200929145510 21 329 14.5 20.9 0.00 0.00 0.00 72 1016.8
20200929145018 22 333 14.5 20.9 0.00 0.00 0.00 72 1016.6
20200929144516 21 333 12.9 20.9 0.00 0.00 0.00 73 1016.8
20200929144022 21 322 14.5 22.5 0.00 0.00 0.00 74 1016.8
20200929143518 21 320 16.1 22.5 0.00 0.00 0.00 74 1016.9
20200929143021 21 327 17.7 25.7 0.00 0.00 0.00 75 1016.8
20200929142516 21 333 17.7 25.7 0.00 0.00 0.00 74 1017.0
20200929142017 21 336 17.7 25.7 0.00 0.00 0.00 74 1016.8
20200929141516 21 346 19.3 25.7 0.00 0.00 0.00 74 1017.0
20200929141012 21 344 17.7 27.4 0.00 0.00 0.00 73 1017.0
20200929140509 21 348 16.1 27.4 0.00 0.00 0.00 73 1016.9
20200929140018 21 345 17.7 27.4 0.00 0.00 0.00 72 1017.1
20200929135515 21 335 17.7 27.4 0.00 0.00 0.00 72 1016.9
20200929135009 22 336 16.1 27.4 0.00 0.00 0.00 71 1016.9
20200929134522 22 334 14.5 22.5 0.00 0.00 0.00 71 1017.2
20200929134018 22 341 16.1 24.1 0.00 0.00 0.00 71 1017.2
20200929133508 22 358 16.1 24.1 0.00 0.00 0.00 71 1017.1
20200929133026 22 346 14.5 22.5 0.00 0.00 0.00 71 1017.1
20200929132513 21 343 16.1 24.1 0.00 0.00 0.00 71 1017.2
20200929132010 21 348 16.1 24.1 0.00 0.00 0.00 71 1017.3
20200929131524 21 329 14.5 22.5 0.00 0.00 0.00 71 1017.3
20200929131017 21 335 16.1 25.7 0.00 0.00 0.00 71 1017.4
20200929130511 21 331 17.7 25.7 0.00 0.00 0.00 71 1017.6
20200929130020 21 334 16.1 30.6 0.00 0.00 0.00 70 1017.7
20200929125507 22 342 16.1 30.6 0.00 0.00 0.00 69 1017.4
20200929125010 22 348 14.5 30.6 0.00 0.00 0.00 67 1017.6
20200929124520 22 349 12.9 24.1 0.00 0.00 0.00 62 1017.5
20200929124009 22 331 12.9 19.3 0.00 0.00 0.00 62 1017.6
20200929123512 22 332 14.5 20.9 0.00 0.00 0.00 62 1017.6
20200929123021 22 359 14.5 20.9 0.00 0.00 0.00 68 1017.6
20200929122509 22 7 12.9 20.9 0.00 0.00 0.00 64 1017.7
20200929122008 22 348 12.9 19.3 0.00 0.00 0.00 66 1017.8
20200929121519 22 351 12.9 17.7 0.00 0.00 0.00 70 1017.6
20200929121018 22 342 14.5 19.3 0.00 0.00 0.00 69 1017.8
20200929120511 22 334 12.9 20.9 0.00 0.00 0.00 68 1017.7
20200929120022 22 343 12.9 20.9 0.00 0.00 0.00 66 1017.7
20200929115514 22 347 12.9 17.7 0.00 0.00 0.00 66 1017.8
20200929115009 22 344 12.9 19.3 0.00 0.00 0.00 67 1017.9
20200929114518 21 339 12.9 20.9 0.00 0.00 0.00 66 1018.0
20200929114023 21 337 12.9 20.9 0.00 0.00 0.00 69 1018.0
20200929113511 21 335 12.9 20.9 0.00 0.00 0.00 71 1018.0
20200929113022 21 334 11.3 17.7 0.00 0.00 0.00 73 1017.9
20200929112507 21 340 12.9 17.7 0.00 0.00 0.00 73 1017.9
20200929112010 21 343 12.9 17.7 0.00 0.00 0.00 73 1017.9
20200929111529 21 349 12.9 17.7 0.00 0.00 0.00 72 1018.1
20200929111009 21 353 12.9 19.3 0.00 0.00 0.00 74 1017.9
20200929110514 21 341 12.9 19.3 0.00 0.00 0.00 74 1018.0
20200929110024 21 329 11.3 17.7 0.00 0.00 0.00 74 1017.9
20200929105510 21 321 11.3 16.1 0.00 0.00 0.00 73 1018.0
20200929105010 21 326 9.7 16.1 0.00 0.00 0.00 73 1018.0
20200929104509 21 326 9.7 16.1 0.00 0.00 0.00 74 1018.0
20200929104009 21 329 11.3 16.1 0.00 0.00 0.00 74 1018.1
20200929103508 20 327 9.7 16.1 0.00 0.00 0.00 74 1018.0
20200929103020 20 336 9.7 16.1 0.00 0.00 0.00 75 1018.2
20200929102509 20 350 11.3 16.1 0.00 0.00 0.00 76 1018.0
20200929102010 20 338 11.3 16.1 0.00 0.00 0.00 76 1017.9
20200929101522 20 350 11.3 16.1 0.00 0.00 0.00 76 1018.1
20200929101008 20 1 11.3 16.1 0.00 0.00 0.00 76 1018.0
20200929100517 20 351 11.3 17.7 0.00 0.00 0.00 76 1018.1
20200929100019 20 353 11.3 17.7 0.00 0.00 0.00 76 1018.0
20200929095509 20 358 11.3 20.9 0.00 0.00 0.00 78 1018.1
20200929095008 20 347 9.7 20.9 0.00 0.00 0.00 79 1018.1
20200929094511 20 340 8.0 12.9 0.00 0.00 0.00 80 1018.2
20200929094010 19 341 9.7 14.5 0.00 0.00 0.00 80 1018.1
20200929093508 19 348 9.7 14.5 0.00 0.00 0.00 80 1018.0
20200929093018 19 350 9.7 12.9 0.00 0.00 0.00 78 1018.0
20200929092508 19 349 8.0 12.9 0.00 0.00 0.00 77 1018.0
20200929092008 19 350 6.4 12.9 0.00 0.00 0.00 75 1017.9
20200929091525 20 334 4.8 9.7 0.00 0.00 0.00 75 1017.8
20200929091009 20 328 3.2 6.4 0.00 0.00 0.00 76 1017.8
20200929090528 19 326 3.2 6.4 0.00 0.00 0.00 77 1017.7
20200929090024 18 314 4.8 6.4 0.00 0.00 0.00 76 1017.9
20200929085513 18 338 3.2 6.4 0.00 0.00 0.00 75 1017.7
20200929085013 18 1 3.2 6.4 0.00 0.00 0.00 76 1017.8
20200929084514 18 1 3.2 6.4 0.00 0.00 0.00 76 1017.6
20200929084008 18 1 1.6 4.8 0.00 0.00 0.00 78 1017.7
20200929083507 18 1 3.2 4.8 0.00 0.00 0.00 81 1017.6
20200929083020 18 1 1.6 4.8 0.00 0.00 0.00 83 1017.4
20200929082510 18 1 1.6 3.2 0.00 0.00 0.00 86 1017.6
20200929082008 18 1 3.2 6.4 0.00 0.00 0.00 90 1017.8
20200929081516 17 1 4.8 6.4 0.00 0.00 0.00 92 1017.4
20200929081011 17 1 4.8 8.0 0.00 0.00 0.00 96 1017.3
20200929080518 17 1 4.8 8.0 0.00 0.00 0.00 100 1017.4
20200929080022 17 1 4.8 8.0 0.00 0.00 0.00 99 1017.4
20200929075510 16 1 6.4 9.7 0.00 0.00 0.00 99 1017.5
20200929075012 16 1 6.4 9.7 0.00 0.00 0.00 99 1017.3
20200929074518 16 1 4.8 9.7 0.00 0.00 0.00 99 1017.1
20200929074008 16 1 4.8 8.0 0.00 0.00 0.00 99 1017.2
20200929073513 16 1 6.4 11.3 0.00 0.00 0.00 99 1017.2
20200929073022 16 16 6.4 11.3 0.00 0.00 0.00 99 1017.3
20200929072510 15 31 6.4 9.7 0.00 0.00 0.00 99 1017.1
20200929072009 15 28 6.4 8.0 0.00 0.00 0.00 99 1016.9
20200929071518 15 23 6.4 8.0 0.00 0.00 0.00 99 1017.1
20200929071011 15 17 4.8 8.0 0.00 0.00 0.00 99 1017.1
20200929070514 15 7 4.8 8.0 0.00 0.00 0.00 99 1016.9
20200929070022 15 1 4.8 8.0 0.00 0.00 0.00 99 1017.0
20200929065516 15 4 4.8 9.7 0.00 0.00 0.00 99 1016.7
20200929065012 15 3 6.4 9.7 0.00 0.00 0.00 99 1017.0
20200929064525 15 4 6.4 9.7 0.00 0.00 0.00 99 1016.6
20200929064018 15 21 6.4 9.7 0.00 0.00 0.00 99 1016.8
20200929063509 15 27 6.4 9.7 0.00 0.00 0.00 99 1016.6
20200929063024 15 7 4.8 6.4 0.00 0.00 0.00 99 1016.7
20200929062513 15 1 4.8 6.4 0.00 0.00 0.00 99 1016.6
20200929062022 14 1 3.2 6.4 0.00 0.00 0.00 99 1016.6
20200929061513 14 1 4.8 6.4 0.00 0.00 0.00 99 1016.6
20200929061022 15 3 4.8 6.4 0.00 0.00 0.00 99 1016.8
20200929060509 15 15 4.8 6.4 0.00 0.00 0.00 99 1016.6
20200929060028 15 29 4.8 8.0 0.00 0.00 0.00 99 1016.4
20200929055510 15 38 6.4 8.0 0.00 0.00 0.00 99 1016.5
20200929055024 15 44 6.4 9.7 0.00 0.00 0.00 99 1016.7
20200929054522 15 41 6.4 12.9 0.00 0.00 0.00 99 1016.5
20200929054011 15 32 6.4 12.9 0.00 0.00 0.00 99 1016.6
20200929053515 15 36 4.8 8.0 0.00 0.00 0.00 99 1016.5
20200929053019 15 44 4.8 6.4 0.00 0.00 0.00 99 1016.6
20200929052512 15 46 4.8 6.4 0.00 0.00 0.00 99 1016.6
20200929052008 15 47 4.8 6.4 0.00 0.00 0.00 99 1016.6
20200929051519 15 52 4.8 6.4 0.00 0.00 0.00 99 1016.6
20200929051011 15 45 3.2 6.4 0.00 0.00 0.00 99 1016.5
20200929050511 15 23 4.8 6.4 0.00 0.00 0.00 99 1016.4
20200929050021 15 29 3.2 6.4 0.00 0.00 0.00 99 1016.6
20200929045508 15 45 1.6 6.4 0.00 0.00 0.00 99 1016.6
20200929045010 15 45 1.6 4.8 0.00 0.00 0.00 99 1016.7
20200929044517 15 45 1.6 4.8 0.00 0.00 0.00 99 1016.5
20200929044009 15 45 1.6 4.8 0.00 0.00 0.00 99 1016.5
20200929043508 15 32 3.2 6.4 0.00 0.00 0.00 99 1016.8
20200929043020 15 27 4.8 6.4 0.00 0.00 0.00 99 1016.7
20200929042508 15 36 4.8 6.4 0.00 0.00 0.00 99 1016.5
20200929042017 15 43 4.8 6.4 0.00 0.00 0.00 99 1016.3
20200929041521 15 45 4.8 8.0 0.00 0.00 0.00 99 1016.3
20200929041016 15 39 6.4 8.0 0.00 0.00 0.00 99 1016.6
20200929040534 15 24 6.4 8.0 0.00 0.00 0.00 99 1016.4
20200929040020 15 23 6.4 8.0 0.00 0.00 0.00 99 1016.5
20200929035505 15 17 6.4 8.0 0.00 0.00 0.00 100 1016.7
20200929035009 15 8 6.4 11.3 0.00 0.00 0.00 100 1016.4
20200929034512 15 20 6.4 12.9 0.00 0.00 0.00 100 1016.6
20200929034008 15 26 6.4 12.9 0.00 0.00 0.00 100 1016.5
20200929033513 14 26 6.4 12.9 0.00 0.00 0.00 97 1016.4
20200929033009 14 29 6.4 9.7 0.00 0.00 0.00 97 1016.4
20200929032513 14 20 6.4 9.7 0.00 0.00 0.00 97 1016.6
20200929032006 14 14 4.8 8.0 0.00 0.00 0.00 96 1016.4
20200929031520 14 8 3.2 6.4 0.00 0.00 0.00 96 1016.4
20200929031011 14 1 3.2 6.4 0.00 0.00 0.00 96 1016.4
20200929030508 14 7 3.2 6.4 0.00 0.00 0.00 96 1016.6
20200929030021 14 27 4.8 6.4 0.00 0.00 0.00 95 1016.4
20200929025514 14 34 3.2 6.4 0.00 0.00 0.00 95 1016.4
20200929025020 14 345 3.2 4.8 0.00 0.00 0.00 95 1016.4
20200929024528 14 339 3.2 3.2 0.00 0.00 0.00 95 1016.5
20200929024006 15 16 1.6 3.2 0.00 0.00 0.00 95 1016.5
20200929023508 15 22 1.6 4.8 0.00 0.00 0.00 95 1016.6
20200929023020 15 12 3.2 8.0 0.00 0.00 0.00 95 1016.5
20200929022509 15 4 4.8 11.3 0.00 0.00 0.00 94 1016.7
20200929022018 15 5 6.4 11.3 0.00 0.00 0.00 94 1016.7
20200929021522 15 4 8.0 11.3 0.00 0.00 0.00 94 1016.5